Regional Weather Roundup
Issued by NWS

Home | Current Version | Previous Version | Graphics & Text | Print | Product List | Glossary On
Versions: 1 2 3 4 5 6 7 8 9 10 11 12 13 14 15 16 17 18 19 20 21 22 23 24 25 26 27 28 29 30 31 32 33 34 35 36 37 38 39 40 41 42 43 44 45 46 47 48 49 50
585
ASUS45 KBOI 242110
RWRID

IDAHO REGIONAL WEATHER ROUNDUP
NATIONAL WEATHER SERVICE BOISE ID
300 PM MDT SAT SEP 24 2016

NOTE: "FAIR" INDICATES FEW OR NO CLOUDS BELOW 12000 FEET
WITH NO SIGNIFICANT WEATHER AND/OR OBSTRUCTIONS TO VISIBILITY

IDZ012-014-242200-
SOUTHWEST IDAHO


CITY           SKY/WX    TMP DP  RH WIND       PRES   REMARKS
BOISE          SUNNY     66  36  32 NW16G24   30.29R
CALDWELL       SUNNY     66  36  32 NW7G18    30.29F
MOUNTAIN HOME  SUNNY     65  35  32 NW20G28   30.28F
$$

IDZ016-017-242200-
SOUTHCENTRAL IDAHO


CITY           SKY/WX    TMP DP  RH WIND       PRES   REMARKS
BURLEY         SUNNY     59  39  47 W14G25    30.26R
JEROME         SUNNY     62  36  37 W26G35    30.25S
TWIN FALLS     SUNNY     61  36  39 W25G32    30.27S
$$

IDZ019>023-242200-
SOUTHEAST IDAHO


CITY           SKY/WX    TMP DP  RH WIND       PRES   REMARKS
IDAHO FALLS    PTSUNNY   59  44  57 S16       30.21S
POCATELLO      PTSUNNY   60  43  53 W22       30.24S
REXBURG        CLOUDY    59  31  34 W10       30.19S
$$

IDZ006-010-011-018-031-032-242200-
CENTRAL IDAHO MOUNTAINS


CITY           SKY/WX    TMP DP  RH WIND       PRES   REMARKS
MCCALL         SUNNY     58  30  34 W9        30.30S
HAILEY         MOSUNNY   63  39  42 S12       30.22S
STANLEY          N/A     59  29  31 N8        30.29S
SALMON         PTSUNNY   61  34  36 NW10      30.24S
CHALLIS        SUNNY     60  27  28 NE14G21   30.24F
$$

IDZ002-004-006-007-026-242200-
NORTHERN IDAHO


CITY           SKY/WX    TMP DP  RH WIND       PRES   REMARKS
LEWISTON       SUNNY     70  38  31 N8        30.31S
LOWELL           N/A     65  45  48 CALM      30.31S
COEUR D`ALENE  NOT AVBL
MULLAN PASS    PTSUNNY   41  37  86 VRB3      30.33R
$$




USA.gov is the U.S. government's official web portal to all federal, state and local government web resources and services.